,,Stat6,,Stat2,,Stat8,,Stat9,,Stat10,,Wind1,,Wind1,
time,status,PA1M_AVG,status,PR1M_SUM,status,RH1M_AVG,status,SR1M_AVG,status,TA1M_AVG,status,W1dAve1m,status,W1sAve1m,
2007-07-12, 00:00:00,VALID,917.971,VALID,0,VALID,100,VALID,0.0169808,VALID,19.8076,VALID,298,VALID,0.125,
2007-07-12, 00:01:00,VALID,917.985,VALID,0,VALID,100,VALID,0.0509425,VALID,19.8134,VALID,298,VALID,0,
2007-07-12, 00:02:00,VALID,917.986,VALID,0,VALID,100,VALID,0.0679233,VALID,19.8198,VALID,298,VALID,0,
2007-07-12, 00:03:00,VALID,917.983,VALID,0,VALID,100,VALID,0.0339617,VALID,19.8263,VALID,298,VALID,0,
2007-07-12, 00:04:00,VALID,917.974,VALID,0,VALID,100,VALID,0.101885,VALID,19.8391,VALID,298,VALID,0,
2007-07-12, 00:05:00,VALID,917.977,VALID,0,VALID,100,VALID,0.0169808,VALID,19.8623,VALID,298,VALID,0,
2007-07-12, 00:06:00,VALID,917.949,VALID,0,VALID,100,VALID,0,VALID,19.8658,VALID,298,VALID,0,
2007-07-12, 00:07:00,VALID,917.952,VALID,0,VALID,100,VALID,0,VALID,19.8957,VALID,298,VALID,0,
2007-07-12, 00:08:00,VALID,917.937,VALID,0,VALID,100,VALID,0.0339617,VALID,19.8982,VALID,298,VALID,0,
2007-07-12, 00:09:00,VALID,917.938,VALID,0,VALID,100,VALID,0.0169808,VALID,19.8917,VALID,298,VALID,0,
2007-07-12, 00:10:00,VALID,917.929,VALID,0,VALID,100,VALID,0.0169808,VALID,19.891,VALID,298,VALID,0,
2007-07-12, 00:11:00,VALID,917.927,VALID,0,VALID,100,VALID,0.0169808,VALID,19.8847,VALID,298,VALID,0,
2007-07-12, 00:12:00,VALID,917.918,VALID,0,VALID,100,VALID,0,VALID,19.8882,VALID,298,VALID,0.0221657,
2007-07-12, 00:13:00,VALID,917.909,VALID,0,VALID,100,VALID,0,VALID,19.895,VALID,298,VALID,0,
2007-07-12, 00:14:00,VALID,917.901,VALID,0,VALID,100,VALID,0,VALID,19.9044,VALID,298,VALID,0,
2007-07-12, 00:15:00,VALID,917.898,VALID,0,VALID,100,VALID,0,VALID,19.9144,VALID,298,VALID,0,
2007-07-12, 00:16:00,VALID,917.891,VALID,0,VALID,100,VALID,0.0169808,VALID,19.9239,VALID,298,VALID,0,
2007-07-12, 00:17:00,VALID,917.884,VALID,0,VALID,100,VALID,0,VALID,19.9272,VALID,298,VALID,0,
2007-07-12, 00:18:00,VALID,917.891,VALID,0,VALID,100,VALID,-0.0169808,VALID,19.9314,VALID,298,VALID,0.0626817,
2007-07-12, 00:19:00,VALID,917.886,VALID,0,VALID,100,VALID,0,VALID,19.9379,VALID,298,VALID,0.0216346,
2007-07-12, 00:20:00,VALID,917.859,VALID,0,VALID,100,VALID,0,VALID,19.9272,VALID,301,VALID,0.272166,
2007-07-12, 00:21:00,VALID,917.862,VALID,0,VALID,100,VALID,-0.0169808,VALID,19.9339,VALID,303,VALID,0.137962,
2007-07-12, 00:22:00,VALID,917.836,VALID,0,VALID,100,VALID,0.0169808,VALID,19.9436,VALID,303,VALID,0.00300481,
2007-07-12, 00:23:00,VALID,917.83,VALID,0,VALID,100,VALID,0,VALID,19.9237,VALID,303,VALID,0,
2007-07-12, 00:24:00,VALID,917.787,VALID,0,VALID,100,VALID,0,VALID,19.9207,VALID,303,VALID,0,
2007-07-12, 00:25:00,VALID,917.759,VALID,0,VALID,100,VALID,0,VALID,19.9274,VALID,303,VALID,0,
2007-07-12, 00:26:00,VALID,917.729,VALID,0,VALID,100,VALID,0,VALID,19.9474,VALID,303,VALID,0,
2007-07-12, 00:27:00,VALID,917.695,VALID,0,VALID,100,VALID,0,VALID,19.9466,VALID,302,VALID,0.0573552,
2007-07-12, 00:28:00,VALID,917.66,VALID,0,VALID,100,VALID,0,VALID,19.9574,VALID,302,VALID,0,
2007-07-12, 00:29:00,VALID,917.612,VALID,0,VALID,100,VALID,-0.0169808,VALID,19.9441,VALID,302,VALID,0.000181686,
2007-07-12, 00:30:00,VALID,917.578,VALID,0,VALID,100,VALID,-0.118866,VALID,19.9521,VALID,302,VALID,0.0164931,
2007-07-12, 00:31:00,VALID,917.547,VALID,0,VALID,100,VALID,-0.101885,VALID,19.9589,VALID,302,VALID,0.0239826,
2007-07-12, 00:32:00,VALID,917.493,VALID,0,VALID,100,VALID,-0.0849042,VALID,19.9556,VALID,302,VALID,0.317645,
2007-07-12, 00:33:00,VALID,917.468,VALID,0,VALID,100,VALID,-0.0849042,VALID,19.9384,VALID,302,VALID,0.121875,
2007-07-12, 00:34:00,VALID,917.432,VALID,0,VALID,100,VALID,-0.118866,VALID,19.9389,VALID,302,VALID,0.00164474,
2007-07-12, 00:35:00,VALID,917.406,VALID,0,VALID,100,VALID,-0.101885,VALID,19.9359,VALID,302,VALID,0,
2007-07-12, 00:36:00,VALID,917.395,VALID,0,VALID,100,VALID,-0.101885,VALID,19.9154,VALID,302,VALID,0,
2007-07-12, 00:37:00,VALID,917.376,VALID,0,VALID,100,VALID,-0.0679233,VALID,19.9157,VALID,302,VALID,0,
2007-07-12, 00:38:00,VALID,917.36,VALID,0,VALID,100,VALID,-0.101885,VALID,19.91,VALID,302,VALID,0,
2007-07-12, 00:39:00,VALID,917.356,VALID,0,VALID,100,VALID,-0.0849042,VALID,19.8905,VALID,302,VALID,0,
2007-07-12, 00:40:00,VALID,917.339,VALID,0,VALID,100,VALID,-0.0849042,VALID,19.8775,VALID,302,VALID,0.360518,
2007-07-12, 00:41:00,VALID,917.321,VALID,0,VALID,100,VALID,-0.101885,VALID,19.874,VALID,328,VALID,0.522461,
2007-07-12, 00:42:00,VALID,917.307,VALID,0,VALID,100,VALID,-0.101885,VALID,19.871,VALID,32,VALID,0.996838,
2007-07-12, 00:43:00,VALID,917.282,VALID,0,VALID,100,VALID,-0.101885,VALID,19.8643,VALID,32,VALID,1.12556,
2007-07-12, 00:44:00,VALID,917.26,VALID,0,VALID,100,VALID,-0.0849042,VALID,19.8573,VALID,35,VALID,1.09557,
2007-07-12, 00:45:00,VALID,917.255,VALID,0,VALID,100,VALID,0.0169808,VALID,19.853,VALID,31,VALID,1.06473,
2007-07-12, 00:46:00,VALID,917.244,VALID,0,VALID,100,VALID,0,VALID,19.853,VALID,33,VALID,0.75191,
2007-07-12, 00:47:00,VALID,917.221,VALID,0,VALID,100,VALID,0.0169808,VALID,19.8533,VALID,33,VALID,0.64881,
2007-07-12, 00:48:00,VALID,917.196,VALID,0,VALID,100,VALID,0,VALID,19.8468,VALID,20,VALID,0.656622,
2007-07-12, 00:49:00,VALID,917.167,VALID,0,VALID,100,VALID,0,VALID,19.8565,VALID,34,VALID,0.815163,
2007-07-12, 00:50:00,VALID,917.122,VALID,0,VALID,100,VALID,-0.0169808,VALID,19.8403,VALID,41,VALID,1.17374,
2007-07-12, 00:51:00,VALID,917.083,VALID,0,VALID,100,VALID,-0.0169808,VALID,19.8206,VALID,31,VALID,1.32685,
2007-07-12, 00:52:00,VALID,917.05,VALID,0,VALID,100,VALID,0,VALID,19.8016,VALID,28,VALID,1.34757,
2007-07-12, 00:53:00,VALID,917.019,VALID,0,VALID,100,VALID,0.0339617,VALID,19.7852,VALID,26,VALID,1.23742,
2007-07-12, 00:54:00,VALID,916.998,VALID,0,VALID,100,VALID,0,VALID,19.759,VALID,27,VALID,1.09766,
2007-07-12, 00:55:00,VALID,916.986,VALID,0,VALID,100,VALID,0,VALID,19.7265,VALID,28,VALID,1.06479,
2007-07-12, 00:56:00,VALID,916.995,VALID,0,VALID,100,VALID,0,VALID,19.6943,VALID,28,VALID,1.21441,
2007-07-12, 00:57:00,VALID,916.996,VALID,0,VALID,100,VALID,0,VALID,19.6846,VALID,26,VALID,1.16146,
2007-07-12, 00:58:00,VALID,916.997,VALID,0,VALID,100,VALID,0.0339617,VALID,19.6776,VALID,18,VALID,0.985709,
2007-07-12, 00:59:00,VALID,917.01,VALID,0,VALID,100,VALID,0.0169808,VALID,19.6881,VALID,20,VALID,0.978299,
2007-07-12, 01:00:00,VALID,917.016,VALID,0,VALID,100,VALID,0.0169808,VALID,19.6873,VALID,24,VALID,0.939596,
2007-07-12, 01:01:00,VALID,917.022,VALID,0,VALID,100,VALID,0.0339617,VALID,19.6838,VALID,20,VALID,0.960175,
2007-07-12, 01:02:00,VALID,917.012,VALID,0,VALID,100,VALID,0.0339617,VALID,19.6611,VALID,20,VALID,1.1131,
2007-07-12, 01:03:00,VALID,916.991,VALID,0,VALID,100,VALID,0.0339617,VALID,19.6554,VALID,18,VALID,0.831101,
2007-07-12, 01:04:00,VALID,916.994,VALID,0,VALID,100,VALID,0,VALID,19.6287,VALID,18,VALID,0.848133,
2007-07-12, 01:05:00,VALID,916.97,VALID,0,VALID,100,VALID,0,VALID,19.619,VALID,20,VALID,0.584028,
2007-07-12, 01:06:00,VALID,916.974,VALID,0,VALID,100,VALID,0.0339617,VALID,19.6187,VALID,20,VALID,0.344477,
2007-07-12, 01:07:00,VALID,916.972,VALID,0,VALID,100,VALID,-0.0169808,VALID,19.6419,VALID,20,VALID,0.0367543,
2007-07-12, 01:08:00,VALID,916.965,VALID,0,VALID,100,VALID,0.0339617,VALID,19.6516,VALID,20,VALID,0,
2007-07-12, 01:09:00,VALID,916.964,VALID,0,VALID,100,VALID,0.0169808,VALID,19.6813,VALID,20,VALID,0,
2007-07-12, 01:10:00,VALID,916.949,VALID,0,VALID,100,VALID,0.0509425,VALID,19.6876,VALID,20,VALID,0,
2007-07-12, 01:11:00,VALID,916.927,VALID,0,VALID,100,VALID,0,VALID,19.7133,VALID,20,VALID,0,
2007-07-12, 01:12:00,VALID,916.902,VALID,0,VALID,100,VALID,0.0169808,VALID,19.7325,VALID,20,VALID,0.154297,
2007-07-12, 01:13:00,VALID,916.892,VALID,0,VALID,100,VALID,0,VALID,19.7425,VALID,20,VALID,0.241508,
2007-07-12, 01:14:00,VALID,916.875,VALID,0,VALID,100,VALID,0,VALID,19.7233,VALID,20,VALID,0.00600962,
2007-07-12, 01:15:00,VALID,916.882,VALID,0,VALID,100,VALID,0,VALID,19.6843,VALID,20,VALID,0.102307,
2007-07-12, 01:16:00,VALID,916.887,VALID,0,VALID,100,VALID,-0.0169808,VALID,19.6651,VALID,20,VALID,0.281795,
2007-07-12, 01:17:00,VALID,916.873,VALID,0,VALID,100,VALID,0.0169808,VALID,19.6751,VALID,20,VALID,0.0610465,
2007-07-12, 01:18:00,VALID,916.859,VALID,0,VALID,100,VALID,0.0169808,VALID,19.6749,VALID,20,VALID,0,
2007-07-12, 01:19:00,VALID,916.842,VALID,0,VALID,100,VALID,0,VALID,19.6681,VALID,20,VALID,0,
2007-07-12, 01:20:00,VALID,916.818,VALID,0,VALID,100,VALID,0,VALID,19.6644,VALID,20,VALID,0,
2007-07-12, 01:21:00,VALID,916.796,VALID,0,VALID,100,VALID,0.0339617,VALID,19.6616,VALID,20,VALID,0.182413,
2007-07-12, 01:22:00,VALID,916.784,VALID,0,VALID,100,VALID,0,VALID,19.6357,VALID,22,VALID,0.513715,
2007-07-12, 01:23:00,VALID,916.769,VALID,0,VALID,100,VALID,-0.0339617,VALID,19.613,VALID,28,VALID,0.607617,
2007-07-12, 01:24:00,VALID,916.769,VALID,0,VALID,100,VALID,0.0169808,VALID,19.6419,VALID,29,VALID,0.621951,
2007-07-12, 01:25:00,VALID,916.792,VALID,0,VALID,100,VALID,0.0169808,VALID,19.6741,VALID,47,VALID,0.611471,
2007-07-12, 01:26:00,VALID,916.793,VALID,0,VALID,100,VALID,0,VALID,19.6906,VALID,47,VALID,0.526867,
2007-07-12, 01:27:00,VALID,916.785,VALID,0,VALID,100,VALID,-0.0169808,VALID,19.7043,VALID,47,VALID,0.39984,
2007-07-12, 01:28:00,VALID,916.778,VALID,0,VALID,100,VALID,0.0169808,VALID,19.7105,VALID,47,VALID,0.372904,
2007-07-12, 01:29:00,VALID,916.749,VALID,0,VALID,100,VALID,0,VALID,19.7293,VALID,47,VALID,0.430537,
2007-07-12, 01:30:00,VALID,916.717,VALID,0,VALID,100,VALID,-0.0509425,VALID,19.7754,VALID,49,VALID,0.607599,
2007-07-12, 01:31:00,VALID,916.694,VALID,0,VALID,100,VALID,-0.0509425,VALID,19.8111,VALID,56,VALID,0.738021,
2007-07-12, 01:32:00,VALID,916.677,VALID,0,VALID,100,VALID,-0.0339617,VALID,19.8144,VALID,58,VALID,0.683222,
2007-07-12, 01:33:00,VALID,916.661,VALID,0,VALID,100,VALID,-0.0339617,VALID,19.8114,VALID,58,VALID,0.699041,
2007-07-12, 01:34:00,VALID,916.648,VALID,0,VALID,100,VALID,-0.0169808,VALID,19.8046,VALID,58,VALID,0.60428,
2007-07-12, 01:35:00,VALID,916.646,VALID,0,VALID,100,VALID,-0.0509425,VALID,19.8174,VALID,58,VALID,0.463194,
2007-07-12, 01:36:00,VALID,916.64,VALID,0,VALID,100,VALID,-0.0169808,VALID,19.8268,VALID,58,VALID,0.431286,
2007-07-12, 01:37:00,VALID,916.648,VALID,0,VALID,100,VALID,-0.0169808,VALID,19.8406,VALID,58,VALID,0.429332,
2007-07-12, 01:38:00,VALID,916.627,VALID,0,VALID,100,VALID,-0.0169808,VALID,19.8495,VALID,58,VALID,0.474077,
2007-07-12, 01:39:00,VALID,916.63,VALID,0,VALID,100,VALID,-0.0169808,VALID,19.8595,VALID,67,VALID,0.598722,
2007-07-12, 01:40:00,VALID,916.628,VALID,0,VALID,100,VALID,-0.0169808,VALID,19.853,VALID,110,VALID,0.717052,
2007-07-12, 01:41:00,VALID,916.612,VALID,0,VALID,100,VALID,0,VALID,19.8401,VALID,135,VALID,0.782012,
2007-07-12, 01:42:00,VALID,916.607,VALID,0,VALID,100,VALID,0.0169808,VALID,19.8079,VALID,158,VALID,0.980015,
2007-07-12, 01:43:00,VALID,916.593,VALID,0,VALID,100,VALID,-0.0339617,VALID,19.7652,VALID,157,VALID,0.958274,
2007-07-12, 01:44:00,VALID,916.569,VALID,0,VALID,100,VALID,-0.0169808,VALID,19.7298,VALID,158,VALID,1.01101,
2007-07-12, 01:45:00,VALID,916.547,VALID,0,VALID,100,VALID,-0.0339617,VALID,19.7041,VALID,149,VALID,0.952567,
2007-07-12, 01:46:00,VALID,916.526,VALID,0,VALID,100,VALID,0.0169808,VALID,19.6808,VALID,148,VALID,0.901972,
2007-07-12, 01:47:00,VALID,916.513,VALID,0,VALID,100,VALID,0,VALID,19.6614,VALID,147,VALID,0.81936,
2007-07-12, 01:48:00,VALID,916.476,VALID,0,VALID,100,VALID,-0.0339617,VALID,19.6519,VALID,142,VALID,1.06215,
2007-07-12, 01:49:00,VALID,916.46,VALID,0,VALID,100,VALID,-0.0169808,VALID,19.6519,VALID,141,VALID,1.12784,
2007-07-12, 01:50:00,VALID,916.448,VALID,0,VALID,100,VALID,0,VALID,19.6584,VALID,136,VALID,1.09339,
2007-07-12, 01:51:00,VALID,916.423,VALID,0,VALID,100,VALID,0,VALID,19.6686,VALID,133,VALID,1.05256,
2007-07-12, 01:52:00,VALID,916.403,VALID,0,VALID,100,VALID,-0.0169808,VALID,19.6454,VALID,132,VALID,0.765278,
2007-07-12, 01:53:00,VALID,916.391,VALID,0,VALID,100,VALID,-0.0339617,VALID,19.6259,VALID,131,VALID,0.865916,
2007-07-12, 01:54:00,VALID,916.38,VALID,0,VALID,100,VALID,-0.0339617,VALID,19.6197,VALID,128,VALID,0.717797,
2007-07-12, 01:55:00,VALID,916.37,VALID,0,VALID,100,VALID,0,VALID,19.6292,VALID,134,VALID,0.977196,
2007-07-12, 01:56:00,VALID,916.371,VALID,0,VALID,100,VALID,-0.0509425,VALID,19.6329,VALID,135,VALID,0.890625,
2007-07-12, 01:57:00,VALID,916.369,VALID,0,VALID,100,VALID,-0.0169808,VALID,19.6162,VALID,135,VALID,0.793241,
2007-07-12, 01:58:00,VALID,916.381,VALID,0,VALID,100,VALID,0,VALID,19.59,VALID,135,VALID,0.789063,
2007-07-12, 01:59:00,VALID,916.384,VALID,0,VALID,100,VALID,-0.0339617,VALID,19.5838,VALID,144,VALID,0.756424,
2007-07-12, 02:00:00,VALID,916.386,VALID,0,VALID,100,VALID,-0.118866,VALID,19.5793,VALID,140,VALID,0.769436,
2007-07-12, 02:01:00,VALID,916.395,VALID,0,VALID,100,VALID,-0.135847,VALID,19.5758,VALID,146,VALID,0.915879,
2007-07-12, 02:02:00,VALID,916.383,VALID,0,VALID,100,VALID,-0.152827,VALID,19.579,VALID,148,VALID,0.915777,
2007-07-12, 02:03:00,VALID,916.375,VALID,0,VALID,100,VALID,-0.135847,VALID,19.5758,VALID,147,VALID,0.889353,
2007-07-12, 02:04:00,VALID,916.377,VALID,0,VALID,100,VALID,-0.0849042,VALID,19.5818,VALID,139,VALID,0.764898,
2007-07-12, 02:05:00,VALID,916.377,VALID,0,VALID,100,VALID,-0.118866,VALID,19.5653,VALID,136,VALID,0.711293,
2007-07-12, 02:06:00,VALID,916.37,VALID,0,VALID,100,VALID,-0.101885,VALID,19.5553,VALID,134,VALID,0.628634,
2007-07-12, 02:07:00,VALID,916.359,VALID,0,VALID,100,VALID,-0.101885,VALID,19.5431,VALID,132,VALID,0.597384,
2007-07-12, 02:08:00,VALID,916.339,VALID,0,VALID,100,VALID,-0.101885,VALID,19.5234,VALID,132,VALID,0.713844,
2007-07-12, 02:09:00,VALID,916.337,VALID,0,VALID,100,VALID,-0.0849042,VALID,19.5104,VALID,133,VALID,0.752668,
2007-07-12, 02:10:00,VALID,916.33,VALID,0,VALID,100,VALID,-0.135847,VALID,19.4972,VALID,138,VALID,0.814862,
2007-07-12, 02:11:00,VALID,916.326,VALID,0,VALID,100,VALID,-0.118866,VALID,19.4902,VALID,148,VALID,0.932091,
2007-07-12, 02:12:00,VALID,916.319,VALID,0,VALID,100,VALID,-0.118866,VALID,19.4972,VALID,154,VALID,1.02362,
2007-07-12, 02:13:00,VALID,916.299,VALID,0,VALID,100,VALID,-0.118866,VALID,19.4909,VALID,150,VALID,0.911395,
2007-07-12, 02:14:00,VALID,916.303,VALID,0,VALID,100,VALID,-0.118866,VALID,19.4882,VALID,144,VALID,0.733648,
2007-07-12, 02:15:00,VALID,916.297,VALID,0,VALID,100,VALID,-0.118866,VALID,19.4909,VALID,149,VALID,0.883903,
2007-07-12, 02:16:00,VALID,916.296,VALID,0,VALID,100,VALID,-0.101885,VALID,19.5041,VALID,142,VALID,0.441707,
2007-07-12, 02:17:00,VALID,916.281,VALID,0,VALID,100,VALID,-0.152827,VALID,19.4814,VALID,144,VALID,0.737464,
2007-07-12, 02:18:00,VALID,916.246,VALID,0,VALID,100,VALID,-0.118866,VALID,19.465,VALID,155,VALID,0.791349,
2007-07-12, 02:19:00,VALID,916.23,VALID,0,VALID,100,VALID,-0.118866,VALID,19.4487,VALID,151,VALID,0.675037,
2007-07-12, 02:20:00,VALID,916.209,VALID,0,VALID,100,VALID,-0.135847,VALID,19.4325,VALID,148,VALID,0.605841,
2007-07-12, 02:21:00,VALID,916.185,VALID,0,VALID,100,VALID,-0.118866,VALID,19.4363,VALID,154,VALID,0.729759,
2007-07-12, 02:22:00,VALID,916.176,VALID,0,VALID,100,VALID,-0.118866,VALID,19.4298,VALID,154,VALID,0.518895,
2007-07-12, 02:23:00,VALID,916.162,VALID,0,VALID,100,VALID,-0.118866,VALID,19.4063,VALID,152,VALID,0.670473,
2007-07-12, 02:24:00,VALID,916.154,VALID,0,VALID,100,VALID,-0.135847,VALID,19.4071,VALID,151,VALID,0.207031,
2007-07-12, 02:25:00,VALID,916.14,VALID,0,VALID,100,VALID,-0.101885,VALID,19.3776,VALID,151,VALID,0.159489,
2007-07-12, 02:26:00,VALID,916.128,VALID,0,VALID,100,VALID,-0.101885,VALID,19.3547,VALID,151,VALID,0.0950521,
2007-07-12, 02:27:00,VALID,916.117,VALID,0,VALID,100,VALID,-0.135847,VALID,19.332,VALID,151,VALID,0.270275,
2007-07-12, 02:28:00,VALID,916.082,VALID,0,VALID,100,VALID,-0.101885,VALID,19.3187,VALID,151,VALID,0.410937,
2007-07-12, 02:29:00,VALID,916.069,VALID,0,VALID,100,VALID,-0.101885,VALID,19.3058,VALID,151,VALID,0.389382,
2007-07-12, 02:30:00,VALID,916.05,VALID,0,VALID,100,VALID,0,VALID,19.3075,VALID,149,VALID,0.641959,
2007-07-12, 02:31:00,VALID,916.032,VALID,0,VALID,100,VALID,-0.0169808,VALID,19.3242,VALID,145,VALID,0.690518,
2007-07-12, 02:32:00,VALID,916.024,VALID,0,VALID,100,VALID,0,VALID,19.3268,VALID,145,VALID,0.500182,
2007-07-12, 02:33:00,VALID,916.036,VALID,0,VALID,100,VALID,-0.0169808,VALID,19.3442,VALID,145,VALID,0.387305,
2007-07-12, 02:34:00,VALID,916.053,VALID,0,VALID,100,VALID,0,VALID,19.3268,VALID,145,VALID,0.386889,
2007-07-12, 02:35:00,VALID,916.066,VALID,0,VALID,100,VALID,-0.0169808,VALID,19.3242,VALID,145,VALID,0.500533,
2007-07-12, 02:36:00,VALID,916.079,VALID,0,VALID,100,VALID,-0.0169808,VALID,19.295,VALID,141,VALID,0.439918,
2007-07-12, 02:37:00,VALID,916.081,VALID,0,VALID,100,VALID,-0.0339617,VALID,19.198,VALID,139,VALID,0.495916,
2007-07-12, 02:38:00,VALID,916.103,VALID,0,VALID,100,VALID,-0.0169808,VALID,19.1389,VALID,116,VALID,0.625572,
2007-07-12, 02:39:00,VALID,916.121,VALID,0,VALID,100,VALID,-0.0339617,VALID,19.1002,VALID,92,VALID,0.84375,
2007-07-12, 02:40:00,VALID,916.12,VALID,0,VALID,100,VALID,0.0169808,VALID,19.1326,VALID,92,VALID,0.848586,
2007-07-12, 02:41:00,VALID,916.113,VALID,0,VALID,100,VALID,-0.0339617,VALID,19.1551,VALID,92,VALID,0.694463,
2007-07-12, 02:42:00,VALID,916.123,VALID,0,VALID,100,VALID,0.0169808,VALID,19.1386,VALID,92,VALID,0.54859,
2007-07-12, 02:43:00,VALID,916.129,VALID,0,VALID,100,VALID,-0.0169808,VALID,19.1132,VALID,92,VALID,0.513579,
2007-07-12, 02:44:00,VALID,916.13,VALID,0,VALID,100,VALID,-0.0169808,VALID,19.1556,VALID,92,VALID,0.437872,
2007-07-12, 02:45:00,VALID,916.136,VALID,0,VALID,100,VALID,-0.0169808,VALID,19.1229,VALID,92,VALID,0.062128,
2007-07-12, 02:46:00,VALID,916.15,VALID,0,VALID,100,VALID,-0.0169808,VALID,19.039,VALID,92,VALID,0,
2007-07-12, 02:47:00,VALID,916.152,VALID,0,VALID,100,VALID,-0.0169808,VALID,18.9899,VALID,92,VALID,0,
2007-07-12, 02:48:00,VALID,916.14,VALID,0,VALID,100,VALID,-0.0339617,VALID,18.97,VALID,92,VALID,0,
2007-07-12, 02:49:00,VALID,916.136,VALID,0,VALID,100,VALID,-0.0169808,VALID,18.9642,VALID,92,VALID,0,
2007-07-12, 02:50:00,VALID,916.122,VALID,0,VALID,100,VALID,-0.0339617,VALID,18.9505,VALID,92,VALID,0,
2007-07-12, 02:51:00,VALID,916.109,VALID,0,VALID,100,VALID,-0.0169808,VALID,18.96,VALID,92,VALID,0.0767228,
2007-07-12, 02:52:00,VALID,916.105,VALID,0,VALID,100,VALID,-0.0339617,VALID,18.9901,VALID,92,VALID,0.414063,
2007-07-12, 02:53:00,VALID,916.101,VALID,0,VALID,100,VALID,0,VALID,18.9837,VALID,97,VALID,0.435855,
2007-07-12, 02:54:00,VALID,916.097,VALID,0,VALID,100,VALID,-0.0339617,VALID,19.0094,VALID,130,VALID,0.465021,
2007-07-12, 02:55:00,VALID,916.095,VALID,0,VALID,100,VALID,0,VALID,19.0124,VALID,172,VALID,0.457732,
2007-07-12, 02:56:00,VALID,916.079,VALID,0,VALID,100,VALID,-0.0339617,VALID,19.0124,VALID,169,VALID,0.619284,
2007-07-12, 02:57:00,VALID,916.062,VALID,0,VALID,100,VALID,0,VALID,19.0121,VALID,157,VALID,0.658736,
2007-07-12, 02:58:00,VALID,916.052,VALID,0,VALID,100,VALID,-0.0169808,VALID,18.9964,VALID,153,VALID,0.728423,
2007-07-12, 02:59:00,VALID,916.019,VALID,0,VALID,100,VALID,0,VALID,18.96,VALID,148,VALID,0.714208,
2007-07-12, 03:00:00,VALID,916.033,VALID,0,VALID,100,VALID,0,VALID,18.9373,VALID,146,VALID,0.421701,
2007-07-12, 03:01:00,VALID,916.038,VALID,0,VALID,100,VALID,0,VALID,18.9246,VALID,154,VALID,0.557736,
2007-07-12, 03:02:00,VALID,916.039,VALID,0,VALID,100,VALID,-0.0169808,VALID,18.8919,VALID,169,VALID,0.177591,
2007-07-12, 03:03:00,VALID,916.046,VALID,0,VALID,100,VALID,0.0169808,VALID,18.8759,VALID,167,VALID,0.305069,
2007-07-12, 03:04:00,VALID,916.047,VALID,0,VALID,100,VALID,0,VALID,18.8569,VALID,160,VALID,0.606771,
2007-07-12, 03:05:00,VALID,916.055,VALID,0,VALID,100,VALID,0,VALID,18.8567,VALID,156,VALID,0.844866,
2007-07-12, 03:06:00,VALID,916.054,VALID,0,VALID,100,VALID,0,VALID,18.8629,VALID,137,VALID,0.587081,
2007-07-12, 03:07:00,VALID,916.058,VALID,0,VALID,100,VALID,0,VALID,18.8597,VALID,144,VALID,0.508345,
2007-07-12, 03:08:00,VALID,916.066,VALID,0,VALID,100,VALID,0,VALID,18.8534,VALID,144,VALID,0.725347,
2007-07-12, 03:09:00,VALID,916.062,VALID,0,VALID,100,VALID,0,VALID,18.8991,VALID,144,VALID,0.616279,
2007-07-12, 03:10:00,VALID,916.068,VALID,0,VALID,100,VALID,0,VALID,18.9315,VALID,143,VALID,0.669085,
2007-07-12, 03:11:00,VALID,916.06,VALID,0,VALID,100,VALID,0,VALID,18.9667,VALID,141,VALID,0.762005,
2007-07-12, 03:12:00,VALID,916.064,VALID,0,VALID,100,VALID,0,VALID,19.0156,VALID,138,VALID,1.00343,
2007-07-12, 03:13:00,VALID,916.077,VALID,0,VALID,100,VALID,0,VALID,19.0772,VALID,129,VALID,1.14807,
2007-07-12, 03:14:00,VALID,916.098,VALID,0,VALID,100,VALID,-0.0169808,VALID,19.1067,VALID,124,VALID,1.22898,
2007-07-12, 03:15:00,VALID,916.115,VALID,0,VALID,100,VALID,0,VALID,19.1166,VALID,124,VALID,1.00781,
2007-07-12, 03:16:00,VALID,916.144,VALID,0,VALID,100,VALID,0,VALID,19.0867,VALID,131,VALID,0.897879,
2007-07-12, 03:17:00,VALID,916.178,VALID,0,VALID,100,VALID,0.0339617,VALID,19.054,VALID,128,VALID,0.761991,
2007-07-12, 03:18:00,VALID,916.189,VALID,0,VALID,100,VALID,0,VALID,19.0608,VALID,137,VALID,0.812318,
2007-07-12, 03:19:00,VALID,916.2,VALID,0,VALID,100,VALID,0.0339617,VALID,19.064,VALID,140,VALID,0.372456,
2007-07-12, 03:20:00,VALID,916.213,VALID,0,VALID,100,VALID,0.0169808,VALID,19.0578,VALID,141,VALID,0.205273,
2007-07-12, 03:21:00,VALID,916.194,VALID,0,VALID,100,VALID,0,VALID,19.0411,VALID,141,VALID,0.486793,
2007-07-12, 03:22:00,VALID,916.18,VALID,0,VALID,100,VALID,0,VALID,19.0508,VALID,148,VALID,0.797619,
2007-07-12, 03:23:00,VALID,916.188,VALID,0,VALID,100,VALID,0.0169808,VALID,19.0578,VALID,139,VALID,0.477515,
2007-07-12, 03:24:00,VALID,916.198,VALID,0,VALID,100,VALID,0.0339617,VALID,19.0675,VALID,124,VALID,0.848028,
2007-07-12, 03:25:00,VALID,916.205,VALID,0,VALID,100,VALID,0.0169808,VALID,19.0768,VALID,127,VALID,0.560213,
2007-07-12, 03:26:01,VALID,916.209,VALID,0,VALID,100,VALID,-0.0169808,VALID,19.0703,VALID,142,VALID,0.192765,
2007-07-12, 03:27:00,VALID,916.222,VALID,0,VALID,100,VALID,0,VALID,19.0738,VALID,142,VALID,0.282203,
2007-07-12, 03:28:00,VALID,916.224,VALID,0,VALID,100,VALID,0.0169808,VALID,19.0807,VALID,134,VALID,0.463477,
2007-07-12, 03:29:00,VALID,916.215,VALID,0,VALID,100,VALID,0.0169808,VALID,19.0802,VALID,132,VALID,0.465278,
2007-07-12, 03:30:01,VALID,916.193,VALID,0,VALID,100,VALID,-0.101885,VALID,19.0724,VALID,132,VALID,0.375186,
2007-07-12, 03:31:00,VALID,916.18,VALID,0,VALID,100,VALID,-0.101885,VALID,19.05,VALID,132,VALID,0.361471,
2007-07-12, 03:32:00,VALID,916.15,VALID,0,VALID,100,VALID,-0.118866,VALID,19.0368,VALID,132,VALID,0.349432,
2007-07-12, 03:33:01,VALID,916.135,VALID,0,VALID,100,VALID,-0.0849042,VALID,19.0268,VALID,132,VALID,0.455124,
2007-07-12, 03:34:00,VALID,916.138,VALID,0,VALID,100,VALID,-0.0849042,VALID,18.9976,VALID,132,VALID,0.329514,
2007-07-12, 03:35:00,VALID,916.15,VALID,0,VALID,100,VALID,-0.101885,VALID,18.9881,VALID,132,VALID,0.428052,
2007-07-12, 03:36:00,VALID,916.153,VALID,0,VALID,100,VALID,-0.0849042,VALID,18.9684,VALID,132,VALID,0.56764,
2007-07-12, 03:37:00,VALID,916.148,VALID,0,VALID,100,VALID,-0.0849042,VALID,18.9587,VALID,131,VALID,0.526105,
2007-07-12, 03:38:00,VALID,916.157,VALID,0,VALID,100,VALID,-0.0849042,VALID,18.8968,VALID,120,VALID,0.553472,
2007-07-12, 03:39:00,VALID,916.143,VALID,0,VALID,100,VALID,-0.0509425,VALID,18.8511,VALID,113,VALID,0.712843,
2007-07-12, 03:40:00,VALID,916.136,VALID,0,VALID,100,VALID,-0.0679233,VALID,18.8382,VALID,106,VALID,0.847751,
2007-07-12, 03:41:00,VALID,916.127,VALID,0,VALID,100,VALID,-0.0509425,VALID,18.8514,VALID,107,VALID,0.969477,
2007-07-12, 03:42:00,VALID,916.122,VALID,0,VALID,100,VALID,-0.0509425,VALID,18.8546,VALID,111,VALID,0.834794,
2007-07-12, 03:43:01,VALID,916.102,VALID,0,VALID,100,VALID,-0.0339617,VALID,18.8511,VALID,117,VALID,0.882449,
2007-07-12, 03:44:01,VALID,916.082,VALID,0,VALID,100,VALID,-0.0169808,VALID,18.8574,VALID,119,VALID,0.789249,
2007-07-12, 03:45:00,VALID,916.082,VALID,0,VALID,100,VALID,0.0509425,VALID,18.8594,VALID,129,VALID,0.772866,